Overview Statistics Trail Chart Weather Telemetry Raw packets
 

This is the latest recevied weather packets stored in our database for station/object K5SVV. If no packets are shown the sender has not sent any weather packets the latest 10 day(s).

<< 13 14 15 16 17 18 19 >>
Time Temp. Humidity Pressure Rain* Wind** Luminosity Snow
1788562753 36.11° C 46% 1010.6 hPa 0 mm - 224 W/m² -
1788562451 36.11° C 46% 1010.6 hPa 0 mm - 104 W/m² -
1788562151 36.67° C 46% 1010.7 hPa 0 mm - 256 W/m² -
1788561847 36.67° C 45% 1010.8 hPa 0 mm - 239 W/m² -
1788561541 36.11° C 46% 1010.8 hPa 0 mm - 247 W/m² -
1788561241 36.11° C 46% 1010.7 hPa 0 mm - 307 W/m² -
1788560936 36.11° C 46% 1010.9 hPa 0 mm - 320 W/m² -
1788560631 36.67° C 46% 1010.8 hPa 0 mm - 341 W/m² -
1788560331 36.67° C 45% 1010.9 hPa 0 mm - 352 W/m² -
1788560026 36.67° C 44% 1010.6 hPa 0 mm - 352 W/m² -
1788559721 36.67° C 45% 1010.8 hPa 0 mm - 393 W/m² -
1788559420 36.67° C 45% 1010.8 hPa 0 mm - 412 W/m² -
1788559116 37.22° C 43% 1010.7 hPa 0 mm - 452 W/m² -
1788558811 37.22° C 45% 1010.9 hPa 0 mm - 432 W/m² -
1788558507 37.22° C 44% 1010.9 hPa 0 mm - 491 W/m² -
1788558203 37.22° C 43% 1011.1 hPa 0 mm - 515 W/m² -
1788557900 37.78° C 42% 1011.1 hPa 0 mm - 492 W/m² -
1788557596 37.22° C 42% 1011.1 hPa 0 mm - 523 W/m² -
1788557292 37.22° C 42% 1011 hPa 0 mm - 511 W/m² -
1788556992 37.22° C 43% 1011.2 hPa 0 mm - 517 W/m² -
1788556687 36.67° C 44% 1011.3 hPa 0 mm - 553 W/m² -
1788556382 37.78° C 42% 1011.2 hPa 0 mm - 575 W/m² -
1788556076 37.22° C 43% 1011.4 hPa 0 mm - 597 W/m² -
1788555770 37.22° C 43% 1011.6 hPa 0 mm - 325 W/m² -
1788555467 37.22° C 44% 1011.6 hPa 0 mm - 622 W/m² -

* Rain latest hour (hover to see other rain measurements)
** Current wind speed in m/s (hover to see current wind gust speed)